{"data":{"norad_id":59076,"intl_designator":"2024-041C","name":"STARLINK-31259","alt_names":[],"object_type":"PAYLOAD","status":"ACTIVE","operator":null,"country":"US","launch_date":"2024-02-29","launch_site_code":"AFETR","launch_vehicle":null,"mission":null,"orbit_class":"UNKNOWN","rcs_meters":null,"size_class":null,"mass_kg":null,"dimensions":null,"purposes":["comms"],"wikipedia_slug":null,"has_3d_model":false,"image_url":null,"decayed_at":null,"tle_current":{"epoch":"2026-05-24T23:33:58.333824Z","epoch_age_seconds":73297,"freshness":"FRESH","line1":"1 59076U 24041C   26144.98192516 -.00001407  00000+0 -41648-4 0  9996","line2":"2 59076  42.9996 239.4888 0000289 100.3368 259.7516 15.27563664124894","mean_motion":15.27563664,"eccentricity":2.89e-5,"inclination_deg":42.9996,"raan_deg":239.4888,"arg_perigee_deg":100.3368,"mean_anomaly_deg":259.7516,"bstar":-4.1648e-5,"rev_number":12489,"period_min":94.267756816714,"perigee_km":482.89972264457,"apogee_km":483.29630202828,"semimajor_km":6861.2350123364,"source":"CELESTRAK","updated_at":"2026-05-25T13:38:18.827852Z"}}}